{"data":{"norad_id":63209,"epoch":"2026-09-22T22:35:43.268928Z","epoch_age_seconds":99819,"freshness":"FRESH","line1":"1 63209U 25051B   26265.94147302  .00033919  00000+0  50530-3 0  9994","line2":"2 63209  97.4492 356.7018 0005202  99.5703 260.6139 15.55028059 85526","mean_motion":15.55028059,"eccentricity":0.0005202,"inclination_deg":97.4492,"raan_deg":356.7018,"arg_perigee_deg":99.5703,"mean_anomaly_deg":260.6139,"bstar":0.0005053,"rev_number":8552,"period_min":92.602830647701,"perigee_km":398.54400231027,"apogee_km":405.5981307827,"semimajor_km":6780.2080665465,"source":"CELESTRAK","updated_at":"2026-09-23T09:00:21.896776Z"}}